www.pogodaiklimat.ru

Погода и климат >> Архив погоды >> Россия >> Магаданская область >> Коркодон


ПОГОДА в Коркодоне

  • Прогноз погоды в Коркодоне
  • Монитор погоды в Коркодоне
  • Климат города

АРХИВ ПОГОДЫ в Коркодоне

Время (UTC), дата Ветер
(напр.,м/с)
 
Видим.   Явления Облачность Т
(С)
Тd
(С)
f
(%)
Тe
(С)
Тes
(С)
Комфортность P
(гПа)
Po
(гПа)
Тmin
(С)
Tmax
(С)
R
(мм)
R24
(мм)
S
(см)
09 19.06 З 2 50 км 3/3 1000 м
[Cu med, cong]
+20.5 +11.1 55 +23 +24 комфорт 1004.7 993.2 +21.2
12 19.06 З 1 50 км местами туман поземный 4/0
[Ac trans Ci fib]
+12.5 +11.8 95 +12 +12 1004.2 992.4
15 19.06 штиль 0 50 км местами туман поземный 5/0
[Ci fib]
+8.3 +7.9 97 +7 +7 1002.4 990.5
18 19.06 З 1 50 км местами туман поземный 9/3 1000 м
[Cu med, cong Ac trans Ci fib]
+9.7 +9.3 97 +9 +9 1001.6 989.7
21 19.06 СЗ 1 20 км слабый ливневой дождь 10/10 1000 м
[Cb cap]
+11.6 +10.2 91 +11 +11 1000.5 988.8 +7.0 0.3
00 20.06 З 2 50 км {ливн. осадки} 8/8 1000 м
[Cb cap]
+18.6 +12.1 66 +20 +22 999.9 988.5
03 20.06 С 4
{10}
50 км 10/10 1000 м
[Cb cap]
+16.4 +10.2 67 +16 +16 1000.5 988.9
06 20.06 С 1
{10}
10 км слабый ливневой дождь 10/10 300 м
[Cb cap]
+12.6 +11.1 91 +13 +13 1001.4 989.6
09 20.06 СЗ 1 50 км {ливн. осадки} 9/9 300 м
[Cb cap]
+13.6 +9.5 76 +14 +14 1001.3 989.6 +19.0 0.9
12 20.06 С 1 50 км {ливн. осадки} 9/5 1000 м
[Cb cap Ac trans Ci fib]
+10.9 +8.9 87 +11 +11 1001.5 989.7
15 20.06 СВ 2 50 км 9/8 600 м
[Cb cap Ci fib]
+10.6 +6.1 74 +9 +9 1001.7 989.8
18 20.06 СВ 2 50 км 9/9 600 м
[Cb cap]
+11.0 +5.6 69 +10 +10 1001.6 989.7
21 20.06 СВ 2 50 км 9/6 600 м
[Cb cap Ac trans Ci fib]
+12.2 +6.1 66 +11 +13 1001.1 989.4 +8.6
00 21.06 В 1 50 км 10/10 600 м
[Cb cap]
+12.7 +6.9 68 +13 +13 1001.5 989.7
03 21.06 СВ 4
{10}
20 км слабый ливневой дождь 10/10 1000 м
[Cb cap]
+14.7 +3.2 46 +14 +14 1001.2 989.5
06 21.06 СВ 2
{11}
50 км {ливн. осадки} 10/10 1000 м
[Cb cap]
+15.4 +5.1 50 +15 +15 1001.8 990.2
09 21.06 С 3 20 км слабый ливневой дождь 10/10 1000 м
[Cb cap]
+13.3 +4.6 56 +12 +12 1003.7 992.0 +15.6 0.0
12 21.06 С 4 20 км слабый ливневой дождь 10/10 600 м
[Cb cap]
+11.8 +7.7 76 +10 +10 1005.4 993.6
15 21.06 СВ 1
{10}
50 км {ливн. осадки} 10/10 600 м
[Cb cap]
+10.8 +5.4 69 +11 +11 1005.6 993.7
18 21.06 ЮЗ 1 50 км {ливн. осадки} 10/10 600 м
[Cb cap]
+9.7 +6.9 83 +9 +9 1006.4 994.5
21 21.06 ЮВ 1 50 км 9/4 600 м
[Cb cap Ci fib]
+11.8 +6.5 70 +12 +15 1006.8 995.0 +9.2 0.0
00 22.06 ЮЗ 1 50 км 9/8 1000 м
[Cb cap Ci fib]
+14.5 +7.7 64 +15 +17 1006.8 995.0
03 22.06 ЮЗ 2 50 км 8/6 1000 м
[Cu Sc Ci fib]
+17.9 +6.2 46 +18 +23 1006.4 994.8
06 22.06 Ю 2 50 км 6/4 1000 м
[Cu med, cong Ci fib]
+16.7 +6.5 51
09 22.06 Ю 3 50 км 3/0
[Ci fib]
+16.3 +7.0 54 +16 +17 1007.6 995.9 +18.8
12 22.06 В 1 50 км 3/0
[Ci fib]
+10.2 +8.0 86
15 22.06 С 2 50 км местами туман поземный ясно +7.1 +6.7 97 +5 +5 1009.3 997.3
18 22.06 В 1 50 км ясно +7.8 +6.9 94 +7 +8 1010.1 998.1
21 22.06 ЮВ 2 50 км ясно +14.6 +8.7 68 +14 +20 1009.8 998.0 +5.1
00 23.06 ЮВ 3 50 км 3/0
[Ci fib]
+18.2 +9.3 56 +19 +27 1008.4 996.8
03 23.06 ЮВ 3 50 км ясно +22.3 +5.6 34 +23 +33 комфорт 1006.0 994.6
06 23.06 Ю 5 50 км ясно +23.6 +4.8 30 +23 +27 комфорт 1003.7 992.4
09 23.06 Ю 3 50 км 3/0
[Ci fib]
+23.0 +6.7 35 +24 +25 комфорт 1002.3 991.0 +23.9
12 23.06 С 2 50 км 8/0
[Ci fib]
+14.5 +8.6 68 +14 +14 1002.1 990.4
15 23.06 В 2 50 км 9/0
[Ci fib]
+17.2 +6.5 49 +18 +18 1001.2 989.7
18 23.06 В 2 50 км 9/0
[Ci fib]
+17.0 +6.0 48 +17 +18 1000.6 989.0
21 23.06 ЮВ 2 50 км 9/0
[Ac trans Ci fib]
+18.5 +6.2 45 +19 +23 1000.3 988.8 +13.7
00 24.06 Ю 3 50 км 9/3 1000 м
[Sc Ac trans Ci fib]
+22.6 +8.8 41 +24 +28 комфорт 999.0 987.7
03 24.06 Ю 3 50 км 9/6 1000 м
[Cu Sc Ac trans Ci fib]
+24.6 +7.1 33 +25 +27 комфорт 997.0 985.8
06 24.06 Ю 2 50 км 9/5 1000 м
[Cu med, cong Ac trans Ci fib]
+26.9 +9.4 33 +27 +29 жарко 996.7 985.6
09 24.06 С 6
{15}
20 км дым 9/9 1000 м
[Cu Sc]
+21.4 +12.2 56 +24 +24 комфорт 998.7 987.4 +27.0
12 24.06 С 2
{17}
20 км слабый ливневой дождь 10/10 300 м
[Cb cap]
+9.6 +7.1 84 +8 +8 1005.2 993.3
15 24.06 СЗ 1 20 км слабый ливневой дождь 10/10 300 м
[Cb cap]
+6.6 +5.0 90 +5 +5 1008.9 996.8
18 24.06 СЗ 1 20 км слабый ливневой дождь 10/10 300 м
[Cb cap]
+5.0 +3.8 92 +4 +4 1001.4 998.7
21 24.06 С 3 20 км слабый ливневой дождь 10/10 300 м
[Cb cap]
+4.5 +2.8 89 +1 +1 1013.0 1000.8 +4.5 10
00 25.06 З 1 10 км слабый ливневой дождь 10/10 300 м
[Cb cap]
+6.0 +3.9 86 +5 +5 1014.3 1002.2
03 25.06 С 2 50 км {ливн. осадки} 9/8 600 м
[Cb cap Ac trans Ci fib]
+8.1 +3.7 74 +6 +8 1014.5 1002.4
06 25.06 З 2 50 км {ливн. осадки} 8/4 1000 м
[Cu med, cong Ac trans Ci fib]
+11.6 +1.1 48 +11 +13 1014.9 1003.0
09 25.06 С 2 50 км 3/3 1000 м
[Sc]
+12.6 +1.0 45 +12 +13 1014.2 1002.3 +13.7 0.0
12 25.06 С 2 50 км 3/3 1000 м
[Sc]
+5.6 +2.3 79 1015.4 1003.1
15 25.06 СЗ 1 50 км 8/0
[Ci fib]
+2.0 +0.9 92 0 0 1016.4 1004.1
18 25.06 С 1 50 км 4/0
[Ci fib]
+3.8 -0.9 71 +3 +10 1015.2 1004.1
21 25.06 Ю 1 50 км ясно +8.3 +2.3 66 +8 +14 1015.0 1002.9 -0.1
00 26.06 З 1 50 км 9/0
[Ci fib]
+12.9 +3.3 52 +13 +24 опасность
простуды
1012.9 1001.0
03 26.06 СЗ 1 50 км 9/0
[Ci fib]
+17.3 +4.2 42 +18 +30 опасность
простуды
1009.7 998.1
06 26.06 ЮЗ 1 50 км 8/0
[Ci fib]
+20.4 +4.6 35 +22 +28 комфорт 1007.1 995.6

 

Местоположение метеостанции Коркодон (Магаданская область, Россия): широта 64.75 долгота 153.90 высота над уровнем моря 99 м.

В архиве по умолчанию представлена погода в Коркодоне за последнюю неделю. Архивные данные за месяц целиком и за предыдущие месяцы, начиная с января 2011 года, Вы можете получить, выбрав интересующий диапазон дат из раскрывающегося списка и нажав кнопку "Ввод!".

Внимание! Время в таблицах - всемирное. Для получения местного времени необходимо прибавить поправку, которая в Коркодоне равна 11 ч.

Смотрите также архив погоды в соседних городах и на ближайших метеорологических станциях:

Погода в Балыгычане (Магаданская область, Россия) (94 км)
Погода в Зырянке (Якутия, Россия) (177 км)
Погода в Сеймчане (Магаданская область, Россия) (217 км)
Погода в Омсукчане (Магаданская область, Россия) (265 км)
Погода в Среднекане (Магаданская область, Россия) (268 км)
Погода в Совхозе Эльген (Магаданская область, Россия) (271 км)
Погода в Лабазной (Магаданская область, Россия) (276 км)
Погода в Среднеколымске (Якутия, Россия) (300 км)
Погода в Омолоне (Чукотка, Россия) (315 км)
Погода в Ягодной (Магаданская область, Россия) (327 км)

Пояснения к столбцам:

Ветер - указаны скорость ветра в м/с - средняя за 10 мин, порывы в срок и между сроками (в фигурных скобках) и направление, откуда дует ветер: С - северный, СВ - северо-восточный, В - восточный, ЮВ - юго-восточный, Ю - южный, ЮЗ - юго-западный, З - западный, СЗ - северо-западный.
Видимость - горизонтальная дальность видимости в метрах или километрах. При видимости от 1 до 10 км при отсутствии осадков обычно наблюдается дымка, при ухудшении видимости до 1 км и менее - туман. В сухую погоду видимость может ухудшаться дымом, пылью или мглою.
Явления - указаны атмосферные явления, наблюдавшиеся в срок или в последний час перед сроком; фигурными скобками обозначены явления, наблюдавшиеся между сроками (за 1-3 часа до срока); квадратными скобками обозначены град или гололедные отложения с указанием их диаметра в мм.
Облачность - указаны через наклонную черту общая и нижняя облачность в баллах и высота нижней границы облаков в метрах; квадратными скобками обозначены формы облаков: Ci - перистые, Cs - перисто-слоистые, Cc - перисто-кучевые, Ac - высококучевые, As - высокослоистые, Sc - слоисто-кучевые, Ns - слоисто-дождевые, Cu - кучевые, Cb - кучево-дождевые. Подробнее классификацию облаков см. в Атласе облаков (PDF).
T - Температура воздуха - температура, измеренная на высоте 2 м над землей.
Td - Температура точки росы - температура, при понижении до которой содержащийся в воздухе водяной пар достигнет насыщения.
f - Относительная влажность воздуха - влажноcть воздуха, измеренная на высоте 2 м над землей.
Te - Эффективная температура - температура, которую ощущает одетый по сезону человек в тени. Характеристика душности погоды. При расчете учитывается влияние влажности воздуха и скорости ветра на теплоощущения человека.
Tes - Эффективная температура на солнце - температура, которую ощущает человек, с поправкой на солнечный нагрев. Характеристика знойности погоды. Зависит от высоты солнца над горизонтом, облачности и скорости ветра. Ночью, в пасмурную погоду, а также при ветре 12 м/с и более поправка равна нулю.
P - Атмосферное давление - приведенное к уровню моря атмосферное давление.
Po - Атмосферное давление - измеренное на уровне метеостанции атмосферное давление.
Tmin - Минимальная температура - минимум температуры воздуха на высоте 2 м над землей.
Tmax - Максимальная температура - максимум температуры воздуха на высоте 2 м над землей.
R - Количество осадков - Количество выпавших осадков за период времени, мм. При наведении курсора мыши на число - период времени, за который выпало указанное количество осадков.
R24 - Количество осадков - Количество выпавших осадков за 24 часа, мм.
S - Снежный покров - Высота снежного покрова, см. При наведении курсора мыши на число - состояние снежного покрова и степень покрытия местности в баллах.